Temp
-16 -16 -16 -16 -16 -16 -16 -17 -17 -17 -17 -17 -17 -16 -16 -16 -16 -16 -16 -17 -17 -17 -16 -16 -16 -16 -16 -16 -16 -16 -16 -16 -15 -15 -14 -14 -14 -14 -14 -13 -13 -13 -12 -11 -11 -10 -9 -9 -8 -8 -7 -7 -6 -6 -5 -5 -4 -4 -4 -4 -4 -4 -4
-17 -16 -16 -17 -17 -17 -17 -17 -17 -17 -17 -17 -17 -17 -17 -17 -17 -17 -17 -17 -17 -17 -17 -17 -17 -17 -17 -17 -17 -17 -17 -17 -16 -16 -16 -16 -15 -15 -15 -14 -14 -13 -13 -13 -12 -11 -11 -10 -10 -9 -8 -7 -7 -6 -6 -5 -5 -4 -4 -4 -4 -4 -4
-17 -17 -17 -17 -17 -17 -18 -18 -18 -18 -18 -18 -18 -18 -18 -18 -18 -18 -18 -18 -18 -18 -18 -18 -18 -18 -18 -18 -17 -17 -17 -17 -17 -17 -17 -17 -17 -16 -16 -15 -15 -14 -14 -13 -13 -13 -12 -12 -11 -10 -9 -8 -8 -7 -7 -6 -6 -5 -5 -4 -4 -4 -4
-17 -17 -17 -18 -18 -18 -18 -18 -19 -19 -19 -19 -19 -19 -19 -19 -19 -19 -19 -19 -19 -19 -19 -19 -19 -19 -19 -19 -18 -18 -18 -18 -18 -18 -18 -17 -17 -17 -16 -16 -16 -15 -15 -14 -14 -13 -13 -12 -12 -11 -11 -10 -9 -8 -8 -7 -6 -6 -5 -5 -5 -4 -4
-18 -18 -18 -18 -19 -19 -19 -19 -19 -19 -19 -19 -20 -20 -20 -20 -20 -20 -20 -20 -20 -20 -20 -20 -20 -20 -20 -19 -19 -19 -19 -19 -19 -19 -18 -18 -18 -17 -17 -16 -16 -16 -15 -15 -14 -14 -14 -13 -13 -13 -12 -11 -11 -10 -9 -8 -7 -7 -6 -6 -5 -5 -5
-19 -19 -19 -19 -19 -19 -19 -20 -20 -20 -20 -20 -20 -20 -20 -20 -20 -20 -20 -20 -20 -20 -20 -20 -20 -20 -20 -20 -20 -20 -20 -19 -19 -19 -19 -18 -18 -18 -17 -17 -17 -16 -16 -15 -15 -15 -15 -14 -14 -14 -13 -13 -12 -11 -10 -9 -8 -7 -7 -6 -6 -6 -5
-20 -20 -20 -20 -20 -20 -20 -20 -21 -21 -21 -21 -21 -21 -21 -21 -21 -21 -21 -21 -21 -21 -21 -21 -21 -21 -21 -20 -20 -20 -20 -20 -20 -19 -19 -19 -19 -18 -18 -18 -17 -17 -17 -16 -16 -15 -15 -15 -15 -14 -14 -13 -12 -12 -11 -10 -9 -8 -7 -7 -6 -6 -5
-20 -20 -21 -21 -21 -21 -21 -21 -21 -22 -22 -22 -22 -22 -22 -22 -22 -22 -22 -22 -22 -22 -21 -21 -21 -21 -21 -20 -20 -20 -20 -20 -20 -19 -19 -19 -19 -19 -18 -18 -18 -17 -17 -17 -16 -16 -16 -15 -15 -15 -14 -13 -13 -12 -12 -11 -10 -9 -8 -7 -6 -6 -5
-21 -21 -22 -22 -22 -22 -22 -22 -22 -22 -22 -22 -22 -22 -22 -22 -22 -22 -22 -22 -22 -22 -21 -21 -21 -21 -20 -20 -20 -20 -19 -19 -19 -19 -19 -19 -19 -19 -18 -18 -18 -17 -17 -17 -16 -16 -16 -15 -15 -15 -14 -14 -13 -12 -12 -11 -10 -9 -8 -7 -7 -6 -6
-22 -22 -22 -23 -23 -23 -23 -23 -23 -23 -23 -22 -22 -22 -22 -22 -22 -22 -21 -21 -21 -21 -21 -20 -20 -20 -20 -19 -19 -19 -19 -19 -19 -19 -19 -19 -18 -18 -18 -18 -18 -17 -17 -16 -16 -16 -15 -15 -15 -14 -14 -14 -13 -13 -12 -11 -10 -10 -8 -7 -7 -7 -6
-23 -23 -23 -23 -23 -23 -24 -24 -24 -23 -23 -22 -21 -21 -22 -21 -21 -21 -20 -20 -20 -20 -20 -19 -19 -19 -19 -19 -19 -19 -19 -18 -18 -18 -18 -18 -18 -18 -18 -18 -17 -17 -17 -16 -16 -16 -15 -15 -15 -14 -14 -14 -13 -13 -13 -12 -11 -10 -9 -8 -7 -7 -6
-23 -23 -24 -24 -24 -24 -24 -24 -24 -23 -22 -21 -21 -20 -20 -21 -21 -20 -20 -20 -20 -19 -19 -19 -19 -18 -18 -18 -18 -18 -18 -18 -18 -18 -18 -17 -17 -17 -17 -17 -17 -17 -17 -17 -16 -16 -15 -15 -15 -14 -14 -14 -14 -13 -13 -12 -12 -11 -10 -8 -7 -7 -7
-24 -24 -24 -24 -24 -24 -24 -24 -24 -24 -22 -21 -21 -20 -20 -20 -20 -20 -20 -20 -20 -19 -19 -19 -19 -19 -18 -18 -18 -18 -18 -17 -17 -17 -17 -17 -17 -17 -16 -16 -16 -16 -16 -16 -16 -16 -16 -15 -15 -15 -14 -14 -14 -14 -13 -13 -12 -11 -11 -10 -8 -8 -7
-24 -24 -24 -24 -24 -24 -25 -25 -24 -24 -22 -21 -20 -20 -19 -20 -20 -20 -20 -20 -20 -20 -20 -20 -19 -19 -19 -18 -18 -18 -17 -17 -17 -17 -17 -17 -17 -17 -17 -16 -16 -15 -15 -15 -16 -16 -16 -15 -15 -15 -14 -14 -14 -14 -14 -13 -13 -12 -12 -11 -11 -10 -9
-24 -24 -24 -24 -25 -25 -25 -25 -24 -23 -22 -21 -20 -19 -19 -20 -21 -21 -21 -20 -20 -20 -20 -20 -19 -19 -19 -18 -18 -18 -17 -17 -17 -17 -17 -17 -17 -17 -17 -17 -16 -16 -16 -15 -15 -15 -15 -15 -15 -15 -14 -14 -14 -14 -14 -14 -13 -13 -13 -13 -12 -12 -11
-24 -24 -25 -25 -25 -25 -25 -25 -24 -23 -22 -21 -20 -19 -20 -21 -21 -21 -21 -20 -20 -20 -20 -19 -19 -19 -18 -18 -18 -17 -17 -16 -16 -16 -16 -16 -16 -16 -16 -16 -16 -16 -16 -15 -15 -15 -15 -15 -15 -15 -14 -14 -14 -14 -14 -14 -14 -14 -13 -13 -13 -13 -12
-25 -25 -25 -25 -25 -25 -25 -25 -25 -24 -22 -21 -20 -20 -21 -21 -21 -21 -20 -20 -20 -19 -19 -19 -18 -18 -18 -17 -17 -17 -16 -16 -15 -15 -15 -15 -15 -15 -16 -16 -15 -15 -15 -15 -15 -15 -15 -14 -14 -14 -14 -13 -13 -13 -14 -14 -14 -14 -13 -13 -13 -13 -12
-25 -25 -25 -25 -25 -25 -25 -25 -25 -24 -22 -21 -20 -20 -21 -21 -21 -20 -20 -19 -19 -19 -18 -18 -18 -17 -17 -17 -16 -16 -15 -15 -14 -14 -14 -14 -14 -14 -15 -15 -15 -15 -15 -15 -14 -14 -14 -13 -13 -13 -13 -13 -13 -13 -13 -13 -14 -13 -13 -13 -13 -13 -12
-25 -25 -25 -25 -25 -25 -25 -25 -25 -24 -23 -22 -20 -20 -21 -21 -20 -20 -20 -19 -19 -19 -18 -18 -17 -17 -16 -16 -15 -15 -15 -14 -14 -14 -13 -13 -13 -13 -14 -14 -14 -14 -14 -14 -14 -14 -14 -14 -14 -13 -13 -13 -13 -13 -13 -13 -13 -13 -13 -13 -13 -12 -12
-25 -25 -25 -25 -26 -25 -25 -25 -25 -24 -23 -22 -21 -20 -20 -20 -20 -20 -20 -20 -19 -19 -18 -17 -17 -16 -16 -16 -16 -15 -15 -15 -14 -14 -13 -13 -13 -13 -13 -13 -13 -13 -13 -14 -14 -14 -14 -15 -14 -14 -14 -14 -14 -14 -13 -13 -13 -13 -13 -13 -12 -12 -12
-26 -26 -26 -26 -26 -25 -25 -25 -24 -24 -23 -22 -21 -21 -20 -20 -20 -20 -20 -20 -19 -19 -18 -17 -17 -17 -16 -17 -16 -16 -16 -15 -14 -14 -14 -13 -12 -12 -12 -12 -12 -13 -13 -13 -14 -14 -14 -15 -15 -15 -15 -15 -15 -14 -14 -13 -13 -13 -13 -13 -13 -12 -12
-26 -26 -26 -26 -25 -25 -24 -24 -24 -23 -23 -22 -22 -21 -20 -20 -20 -20 -20 -20 -19 -18 -18 -18 -17 -17 -17 -17 -17 -16 -16 -15 -14 -14 -14 -13 -12 -11 -11 -11 -12 -12 -13 -13 -14 -14 -14 -14 -14 -14 -14 -14 -14 -14 -14 -13 -13 -13 -13 -13 -13 -12 -12
-26 -26 -25 -25 -25 -24 -24 -23 -23 -23 -23 -22 -22 -21 -21 -20 -20 -20 -20 -20 -19 -19 -18 -18 -18 -18 -18 -18 -17 -16 -16 -15 -15 -15 -14 -13 -12 -12 -11 -11 -11 -12 -12 -13 -13 -13 -14 -14 -14 -14 -14 -14 -13 -13 -13 -13 -13 -12 -12 -12 -12 -12 -12
-25 -25 -25 -25 -24 -24 -23 -23 -23 -23 -23 -22 -22 -22 -21 -21 -20 -20 -21 -20 -19 -19 -18 -18 -18 -19 -18 -18 -17 -17 -17 -17 -17 -16 -15 -15 -14 -13 -12 -11 -11 -11 -12 -12 -12 -13 -13 -13 -13 -13 -13 -13 -13 -12 -12 -12 -12 -12 -12 -12 -12 -12 -12
-25 -25 -25 -24 -24 -24 -23 -23 -23 -23 -23 -23 -23 -22 -22 -21 -21 -21 -21 -20 -20 -19 -19 -19 -19 -19 -19 -19 -19 -18 -18 -19 -18 -18 -17 -16 -15 -14 -12 -12 -11 -11 -11 -11 -12 -12 -12 -12 -12 -12 -12 -12 -12 -12 -12 -12 -12 -12 -12 -11 -11 -11 -11
-25 -25 -25 -24 -24 -24 -24 -24 -23 -23 -23 -23 -23 -23 -23 -23 -23 -22 -21 -20 -20 -19 -20 -20 -20 -20 -20 -20 -20 -20 -20 -19 -19 -19 -18 -17 -17 -16 -14 -13 -12 -12 -11 -11 -11 -11 -11 -12 -12 -12 -12 -12 -12 -11 -11 -11 -11 -11 -11 -11 -11 -11 -11
-25 -25 -24 -24 -24 -24 -24 -24 -23 -23 -24 -23 -23 -23 -23 -23 -23 -22 -21 -20 -20 -20 -21 -21 -21 -21 -21 -20 -20 -20 -20 -20 -20 -20 -20 -19 -18 -18 -17 -15 -14 -13 -12 -11 -11 -10 -10 -10 -11 -11 -11 -11 -11 -11 -11 -11 -11 -11 -11 -11 -11 -10 -10
-25 -25 -24 -25 -24 -24 -24 -24 -24 -24 -24 -24 -24 -24 -24 -23 -23 -22 -21 -21 -20 -21 -22 -22 -22 -21 -21 -21 -21 -21 -21 -21 -21 -21 -21 -20 -20 -19 -18 -17 -16 -14 -12 -11 -11 -10 -10 -10 -10 -10 -10 -10 -10 -10 -10 -10 -10 -10 -10 -10 -10 -10 -10
-25 -24 -25 -25 -24 -24 -24 -24 -24 -24 -24 -24 -24 -24 -23 -23 -22 -21 -21 -21 -21 -22 -22 -22 -22 -22 -22 -22 -22 -22 -22 -22 -22 -22 -22 -21 -21 -20 -19 -18 -17 -16 -13 -11 -10 -10 -10 -10 -10 -10 -10 -10 -10 -10 -10 -10 -10 -10 -10 -10 -10 -10 -10
-24 -24 -24 -24 -24 -24 -24 -25 -25 -24 -24 -24 -24 -23 -22 -22 -22 -21 -21 -21 -22 -23 -23 -23 -23 -23 -22 -22 -23 -22 -22 -22 -22 -22 -22 -22 -22 -21 -20 -19 -18 -17 -15 -13 -11 -10 -10 -10 -10 -10 -10 -10 -10 -10 -10 -10 -10 -10 -10 -10 -10 -10 -10
-24 -24 -24 -24 -24 -25 -25 -25 -25 -25 -24 -24 -24 -23 -22 -22 -22 -22 -22 -22 -23 -24 -23 -23 -23 -23 -23 -23 -23 -23 -23 -23 -23 -23 -23 -23 -23 -22 -21 -20 -19 -18 -18 -16 -13 -11 -10 -11 -10 -10 -11 -10 -10 -10 -10 -10 -10 -10 -10 -10 -10 -10 -10
-24 -24 -24 -24 -25 -25 -26 -26 -25 -25 -25 -24 -24 -23 -23 -22 -22 -23 -23 -23 -24 -24 -24 -24 -24 -24 -24 -24 -24 -24 -24 -23 -23 -23 -23 -23 -23 -23 -22 -21 -21 -20 -19 -18 -14 -11 -10 -11 -11 -10 -11 -11 -10 -10 -11 -10 -10 -10 -10 -10 -10 -10 -10
-25 -25 -25 -25 -26 -26 -26 -26 -26 -26 -26 -25 -25 -24 -23 -23 -23 -24 -24 -24 -25 -25 -25 -25 -25 -24 -24 -24 -24 -24 -24 -24 -24 -24 -24 -24 -24 -23 -23 -23 -22 -21 -20 -18 -15 -12 -11 -11 -11 -11 -11 -11 -11 -11 -11 -11 -11 -10 -10 -10 -10 -10 -9
-27 -26 -27 -27 -27 -27 -27 -27 -27 -27 -27 -26 -25 -24 -23 -24 -24 -25 -25 -25 -26 -26 -25 -25 -25 -25 -25 -25 -25 -25 -25 -25 -25 -24 -24 -24 -24 -24 -24 -23 -22 -21 -20 -19 -18 -15 -12 -11 -11 -11 -11 -11 -11 -11 -11 -11 -11 -11 -10 -10 -10 -9 -9
-27 -27 -28 -28 -28 -28 -28 -28 -28 -28 -28 -27 -25 -24 -25 -25 -26 -26 -26 -26 -26 -26 -26 -26 -26 -26 -26 -26 -25 -25 -25 -25 -25 -25 -25 -25 -25 -25 -24 -24 -23 -22 -21 -21 -20 -18 -15 -12 -11 -11 -11 -11 -11 -11 -11 -11 -11 -11 -10 -10 -10 -10 -9
-28 -28 -28 -28 -28 -28 -28 -28 -29 -29 -28 -26 -25 -25 -26 -27 -27 -27 -27 -27 -27 -27 -27 -27 -27 -26 -26 -26 -26 -26 -26 -26 -26 -25 -25 -25 -25 -25 -25 -24 -23 -23 -22 -22 -21 -20 -18 -15 -13 -11 -11 -11 -11 -11 -11 -11 -11 -11 -11 -10 -10 -10 -9
Height
834 832 830 828 826 825 823 821 819 817 815 813 811 809 807 805 803 801 799 798 796 794 793 791 789 787 786 785 783 781 780 779 777 776 775 774 772 771 769 767 765 760 753 751 752 748 745 746 745 742 741 741 739 738 738 737 736 736 735 734 733 733 733
831 830 828 826 824 822 820 818 817 815 813 810 808 806 804 802 801 798 796 795 792 791 790 788 785 784 783 782 780 778 777 776 774 773 772 771 770 767 766 765 763 759 753 750 750 746 742 743 742 739 738 738 736 735 734 733 732 732 731 730 730 729 729
829 827 825 823 822 820 818 816 814 812 810 808 806 803 801 800 798 795 793 791 788 787 786 784 781 780 779 778 776 774 774 772 771 770 768 767 766 764 762 762 760 757 753 749 747 745 740 739 739 737 735 735 733 732 731 729 728 728 727 726 726 725 724
827 825 823 821 819 817 815 813 811 809 807 805 803 800 798 796 794 792 789 786 784 782 781 780 777 776 775 774 773 771 770 769 767 767 765 763 762 761 759 758 757 754 751 748 745 743 739 736 736 734 732 732 731 729 728 726 724 724 723 722 722 721 720
825 823 821 819 817 815 812 810 808 806 803 801 799 797 794 792 790 787 785 782 780 779 777 775 773 772 771 771 769 767 766 765 764 763 762 760 758 757 755 754 752 750 749 746 743 740 737 734 732 731 730 730 729 726 724 723 721 720 719 718 718 717 716
823 821 819 816 814 812 809 807 805 802 800 798 795 793 790 788 785 782 780 778 776 774 773 771 769 768 768 767 765 763 762 761 760 759 757 756 754 753 752 750 748 747 745 743 740 738 735 732 730 728 726 726 727 724 721 720 717 716 715 714 713 713 712
820 818 816 813 811 809 806 804 801 799 796 794 791 789 786 783 781 778 776 774 771 770 768 766 765 763 762 762 760 758 757 756 755 753 752 750 749 748 747 745 744 743 741 739 737 735 733 730 728 725 722 721 723 721 719 717 714 711 710 710 709 708 707
817 815 813 810 808 805 803 800 797 794 792 789 786 784 781 779 776 774 771 768 766 765 763 761 760 758 756 755 753 752 751 749 749 747 745 744 743 743 741 740 738 738 736 735 733 731 729 727 725 722 719 717 719 717 714 714 712 707 705 705 704 703 703
814 811 809 806 804 801 799 796 793 790 787 784 781 779 776 774 772 769 766 763 760 758 756 754 753 751 749 748 746 744 743 742 741 740 739 737 737 737 735 734 733 732 731 730 727 725 725 723 721 719 716 714 714 712 710 710 709 704 701 701 699 698 698
810 808 805 802 799 797 795 792 788 785 782 780 777 775 772 770 767 764 761 758 755 751 749 747 745 743 741 740 738 737 735 734 734 733 732 731 731 731 730 728 727 726 725 723 721 720 719 718 715 714 714 711 709 709 707 706 705 701 698 697 695 693 693
806 803 801 798 795 793 790 787 784 780 777 774 772 769 768 765 762 760 756 753 750 747 744 742 740 738 736 734 732 730 728 727 726 726 725 724 724 724 723 722 720 718 717 717 715 713 713 711 709 709 710 707 706 706 705 703 702 699 696 694 691 688 687
802 800 797 795 791 788 785 782 779 776 772 768 765 763 762 760 757 754 751 748 745 742 739 737 735 733 731 728 726 724 722 720 719 718 717 716 716 715 715 714 712 710 709 708 707 706 705 704 703 704 704 703 702 703 702 700 698 696 693 690 688 684 683
799 796 793 791 787 784 781 777 774 771 767 763 760 758 756 754 752 749 746 743 740 738 735 732 729 726 723 721 720 718 716 713 711 710 709 708 708 707 706 705 703 702 701 700 699 698 696 697 698 698 698 698 699 699 698 696 694 693 692 689 686 683 682
795 792 790 787 784 780 776 773 770 766 762 758 756 753 751 749 748 745 741 738 735 732 729 726 724 720 717 715 713 711 709 707 705 703 701 700 699 698 697 696 695 694 693 693 692 690 687 689 691 691 691 693 695 694 693 691 690 690 690 688 684 682 680
791 788 786 783 780 776 772 768 766 762 758 754 751 748 746 745 743 740 736 733 730 727 724 721 719 716 712 709 706 704 702 700 698 696 694 692 690 688 687 686 686 685 684 683 683 682 680 681 683 684 684 686 688 687 686 686 687 687 688 687 683 679 677
788 785 782 779 776 773 768 763 761 758 753 750 747 744 743 741 738 735 732 728 725 722 719 716 714 711 707 704 701 697 695 693 691 688 686 683 681 678 677 676 675 675 675 674 673 673 672 673 674 675 675 677 679 679 680 682 683 683 684 683 680 676 674
785 782 779 775 772 769 764 759 756 754 749 745 743 741 740 738 735 731 727 723 720 717 714 711 709 706 703 699 695 691 688 685 682 680 677 675 672 669 667 665 664 665 666 666 665 664 663 663 664 664 664 666 668 669 672 675 675 675 677 678 675 672 669
781 778 775 772 768 766 762 756 752 750 745 741 739 737 736 734 731 727 724 720 716 712 709 706 703 700 698 693 689 685 681 677 674 672 669 666 663 660 657 655 655 657 657 657 656 655 655 655 655 656 656 658 659 661 664 666 666 667 670 671 669 667 665
777 774 771 768 764 762 759 753 749 746 742 737 735 733 732 730 727 724 720 716 712 708 704 701 697 694 692 688 684 680 675 670 667 664 662 659 655 651 648 646 647 648 647 647 647 647 648 648 649 651 651 652 653 655 658 658 658 660 663 664 663 662 660
774 770 767 764 760 757 754 750 745 742 739 734 731 729 728 727 724 721 717 713 709 704 699 695 692 689 686 683 679 675 670 664 659 656 654 651 647 642 639 638 637 637 636 637 638 639 640 642 643 645 645 646 647 649 650 651 651 653 656 657 656 656 655
771 767 762 759 756 753 750 747 743 740 736 733 729 726 724 723 721 718 714 709 705 701 696 692 688 684 681 678 674 669 664 658 653 650 647 643 638 633 631 629 628 628 629 631 632 634 635 636 638 638 639 639 640 641 642 643 644 646 648 650 649 649 650
767 763 759 755 752 749 746 744 741 738 735 731 728 723 720 719 717 714 711 707 701 697 693 689 685 681 678 674 669 663 658 653 648 645 641 636 630 626 624 624 623 624 625 626 627 628 629 630 631 631 632 632 632 633 634 635 636 637 640 641 642 643 645
763 760 755 752 749 746 743 741 739 736 733 730 726 721 717 715 713 710 708 704 699 694 690 686 682 678 674 669 664 658 654 649 645 641 637 632 627 622 620 620 619 619 620 621 621 622 622 623 623 624 624 625 625 625 626 627 628 629 631 633 635 637 639
760 757 753 749 746 743 740 738 735 732 730 727 724 720 715 712 709 707 704 701 696 692 687 683 680 676 671 665 660 655 651 646 642 638 634 629 625 621 618 617 615 614 614 614 614 615 615 615 615 616 616 616 617 618 618 620 621 622 624 625 627 630 632
758 755 751 747 743 740 737 735 732 729 726 724 721 718 714 710 707 704 702 698 693 689 685 681 678 673 668 663 658 654 649 644 639 635 632 628 624 620 617 615 613 611 609 609 608 608 607 606 606 608 609 609 611 612 613 614 615 617 618 619 621 624 626
755 752 748 744 741 738 734 732 729 726 723 721 718 715 712 708 704 701 698 694 689 685 682 679 675 670 665 661 657 653 648 643 638 634 630 627 623 620 616 614 611 609 606 604 602 601 600 599 599 601 603 604 606 607 608 609 609 611 612 614 616 618 619
752 749 746 742 738 735 732 729 726 723 721 718 715 712 709 705 701 697 693 690 686 682 678 675 671 667 663 660 656 652 648 643 639 634 629 625 622 618 615 613 610 607 604 600 597 595 594 593 594 596 598 600 601 602 603 603 604 605 606 607 610 611 612
749 746 743 740 736 733 729 726 724 721 719 716 713 710 706 702 698 694 690 687 683 679 675 671 668 665 661 658 654 650 647 643 638 634 629 625 621 618 614 611 608 604 600 596 592 590 588 587 589 592 594 595 596 597 598 599 600 601 601 602 604 605 606
745 742 740 737 734 731 727 724 721 719 716 713 710 707 704 700 696 692 688 685 681 677 673 670 667 664 660 657 653 650 646 641 637 633 629 625 622 618 614 610 607 604 599 593 589 586 585 585 587 589 591 592 593 594 595 596 597 597 598 599 600 601 602
742 739 737 735 732 729 726 722 719 716 713 709 707 704 700 697 693 689 686 683 679 675 672 669 667 663 660 658 654 651 646 642 638 633 629 626 622 619 615 611 608 604 599 593 589 586 585 585 587 588 590 591 591 592 593 594 594 595 596 596 597 598 600
738 736 734 732 729 726 724 720 716 713 709 706 703 699 696 693 690 687 684 681 677 675 672 670 667 664 661 658 655 652 648 644 640 636 631 627 624 620 617 613 609 605 601 596 591 588 586 586 587 588 589 590 590 591 592 592 592 593 594 594 594 596 598
735 732 730 729 726 723 720 717 714 711 707 703 700 696 693 690 687 684 682 680 677 674 672 670 667 664 662 659 656 653 649 645 642 638 634 630 626 621 618 615 610 606 602 597 593 589 587 587 587 587 588 588 589 589 590 591 591 591 592 592 593 594 595
733 730 727 725 723 720 717 714 711 708 704 700 697 694 691 689 686 683 682 679 677 674 672 670 668 665 662 660 657 653 650 646 643 639 636 632 628 624 619 615 611 607 603 598 594 590 588 587 587 587 587 588 588 589 589 590 590 590 590 591 591 591 593
729 727 725 722 719 717 714 711 708 705 702 699 696 693 690 687 684 682 681 679 677 675 672 670 668 665 663 660 657 654 651 647 643 640 637 633 629 625 621 616 611 607 604 599 595 591 588 587 587 587 587 587 587 588 588 589 589 589 589 590 590 590 591
725 723 722 720 716 714 712 709 706 703 700 698 695 692 689 685 683 681 680 678 677 675 673 671 669 666 663 660 657 654 651 648 644 641 637 633 630 626 621 617 613 609 605 601 597 593 590 588 586 586 586 586 586 587 587 588 588 588 588 588 589 589 589
722 720 718 717 714 712 710 707 705 702 699 697 695 691 688 685 683 681 679 677 676 674 672 670 668 666 663 660 657 654 651 648 645 641 638 635 631 627 622 619 615 611 607 603 599 596 592 589 587 586 585 585 585 586 586 586 586 587 587 587 587 588 588
Wind_Speed
20 21 22 23 24 25 25 25 25 25 25 26 26 25 25 25 24 25 26 26 25 24 24 24 25 26 25 24 24 24 22 22 21 21 21 21 21 22 21 20 20 15 14 19 23 27 28 26 26 28 28 29 29 29 29 29 29 29 28 27 26 26 27
21 22 23 24 25 27 27 26 27 26 26 26 26 26 26 25 26 26 26 27 27 27 25 26 27 27 26 24 24 25 23 23 22 21 23 22 21 22 22 20 21 20 16 16 20 25 27 24 24 26 26 26 28 29 28 28 28 28 28 28 27 27 27
22 23 24 25 27 27 27 27 27 26 26 26 27 27 27 26 27 27 27 27 28 28 27 27 28 29 27 25 25 26 24 23 23 22 23 23 22 23 23 22 22 22 20 19 19 22 26 24 22 25 26 26 28 29 29 29 29 28 28 28 28 29 28
22 24 25 26 26 27 27 27 27 27 27 27 27 27 28 28 27 27 28 28 29 28 27 27 27 27 25 24 24 25 24 22 22 22 22 23 22 22 23 22 22 23 23 21 20 21 24 25 22 22 24 23 26 28 28 29 30 29 29 30 30 30 30
24 24 25 26 26 27 28 28 28 27 27 27 26 27 28 28 28 28 28 29 29 28 26 26 26 25 23 23 24 24 23 22 22 23 23 23 23 22 22 22 22 22 23 22 22 22 23 25 24 24 23 22 23 27 29 30 31 30 29 30 31 31 32
24 24 25 26 27 27 28 28 28 28 27 27 26 27 28 28 28 28 28 28 28 27 26 26 26 26 24 24 25 25 24 24 24 25 25 26 25 24 24 24 23 23 23 23 24 23 23 25 25 24 24 22 22 24 26 28 31 33 32 32 31 32 32
25 25 25 26 26 26 27 27 27 27 27 26 26 27 27 27 27 27 27 27 27 27 26 27 27 27 27 28 28 29 30 29 28 28 28 28 28 27 27 27 26 25 25 24 24 23 23 24 24 25 26 24 21 23 25 26 27 29 30 30 30 31 31
25 25 25 25 25 25 26 26 25 25 25 25 26 25 25 26 25 25 27 28 29 30 30 31 31 32 32 34 35 36 37 36 34 32 31 30 30 28 27 27 26 25 25 24 24 23 23 23 23 23 25 23 20 20 23 24 25 27 27 28 29 30 29
24 24 24 24 24 24 24 23 23 23 23 25 27 27 26 27 26 27 29 30 32 35 35 36 36 36 38 39 40 41 41 41 39 37 34 32 30 29 28 27 26 24 24 23 23 22 22 21 21 22 22 21 19 19 21 22 23 27 29 29 29 30 30
22 21 22 22 23 23 23 23 24 26 28 30 32 33 32 31 31 31 32 32 33 34 34 35 36 37 39 39 40 42 42 42 42 40 39 36 32 29 28 27 27 26 25 24 22 22 21 18 19 21 22 22 22 21 22 22 22 25 28 27 25 26 28
20 21 22 23 24 25 26 27 27 29 33 36 36 37 37 35 33 33 33 32 32 32 32 32 31 31 33 34 35 38 40 42 43 43 43 43 41 38 35 32 29 28 28 26 24 24 24 21 20 23 23 24 24 23 22 23 24 24 25 23 17 15 20
22 23 23 24 26 27 28 30 30 32 35 37 37 37 37 35 32 31 31 30 30 31 31 31 31 31 32 33 34 36 37 39 41 42 43 45 46 46 44 42 39 35 31 30 28 26 25 25 24 24 25 25 25 23 23 25 25 24 24 23 19 16 18
24 24 24 26 28 29 30 32 33 34 36 38 38 37 37 37 35 31 29 28 28 29 30 30 31 31 32 33 34 35 36 38 39 40 41 43 44 45 47 48 49 46 41 36 32 28 28 31 29 26 27 28 26 24 24 25 25 24 23 22 21 21 23
24 25 26 28 30 30 31 34 35 35 37 38 38 37 37 38 35 30 28 28 28 29 29 30 30 31 32 33 33 33 35 37 39 40 40 41 42 44 46 46 48 50 49 46 39 34 33 37 36 33 32 32 30 28 28 26 25 24 23 26 27 28 28
22 24 26 29 29 29 32 35 35 35 38 39 37 36 37 35 30 27 28 29 28 29 29 30 31 31 33 34 35 35 36 38 39 40 40 41 42 43 45 46 47 48 49 49 47 42 40 41 40 39 39 36 34 34 34 32 29 27 27 30 33 34 34
20 21 25 27 28 28 33 37 37 36 38 39 36 36 37 32 27 26 27 28 29 29 30 30 30 31 33 34 36 38 39 40 41 41 41 42 45 47 48 48 50 49 47 48 48 47 46 45 43 44 45 44 41 40 39 35 33 31 29 28 27 27 29
20 21 23 26 27 27 31 38 39 37 38 39 36 36 36 30 25 26 27 27 29 29 29 30 30 32 33 35 37 40 42 44 45 44 43 41 42 46 49 50 51 49 46 46 48 49 49 49 48 48 49 49 47 47 43 35 30 30 30 24 19 17 21
22 21 21 22 25 26 29 35 39 37 37 38 34 34 34 29 24 25 26 27 28 28 29 30 32 33 34 36 39 41 42 44 45 44 43 41 39 40 44 48 49 46 44 44 46 48 49 49 49 48 47 47 46 46 44 37 32 32 30 24 19 16 18
21 21 21 22 26 29 30 35 38 36 35 36 34 34 35 30 24 23 25 25 27 28 29 30 31 31 32 34 36 38 40 44 46 43 39 38 36 33 36 42 45 43 43 43 43 44 44 44 44 43 41 41 40 40 41 40 38 36 32 27 25 23 18
21 23 26 28 30 32 32 33 35 34 34 35 35 35 35 29 22 22 25 26 27 29 30 29 28 29 30 31 35 40 42 44 46 45 41 39 35 29 31 39 41 42 45 44 41 42 42 39 40 40 39 38 37 37 39 40 40 38 35 32 31 28 22
25 27 29 30 30 29 29 30 30 31 32 33 34 36 34 28 24 25 26 27 29 28 27 28 28 28 29 33 39 43 44 44 46 46 43 41 35 30 32 36 36 37 42 40 36 36 35 33 33 35 35 35 34 34 35 38 39 38 38 38 36 32 27
29 28 28 28 26 25 26 26 25 27 28 30 33 36 35 32 31 30 28 28 29 27 26 28 29 27 30 38 43 44 43 44 44 42 40 38 34 31 30 30 28 29 30 28 25 26 26 26 28 28 29 30 31 31 32 35 38 39 39 40 41 38 33
25 24 24 24 23 23 24 24 23 25 26 28 31 35 36 34 33 33 33 30 28 28 29 29 26 26 33 42 44 42 41 41 40 37 36 36 34 27 23 23 23 23 23 22 22 23 23 25 26 26 26 27 28 30 32 33 36 38 39 40 41 42 41
21 21 22 22 22 23 23 23 24 25 25 26 29 32 34 33 33 36 36 31 28 29 30 27 25 30 38 42 40 38 37 37 36 33 32 35 35 29 21 18 18 20 22 23 23 22 23 25 26 26 27 28 29 30 32 33 34 36 38 39 39 40 41
20 20 21 22 22 23 23 24 26 26 24 25 27 29 29 31 34 36 33 30 29 29 26 25 29 35 38 36 33 33 33 32 31 31 31 32 30 26 20 16 17 17 16 19 22 23 24 26 27 28 30 31 31 30 29 30 32 34 37 38 38 38 39
20 19 21 21 21 23 24 25 25 25 24 25 26 25 26 30 34 34 30 28 28 25 23 25 30 32 30 28 28 29 29 29 29 29 28 27 25 23 20 18 18 18 17 17 19 22 25 28 28 28 30 30 29 28 27 27 28 30 33 35 34 34 35
20 20 21 21 22 23 25 25 24 24 24 24 24 25 27 31 33 31 28 26 24 21 22 26 27 25 24 24 25 25 25 25 25 25 24 23 23 23 23 21 21 22 22 22 20 20 24 29 28 26 26 26 26 26 26 25 25 25 27 31 33 30 30
20 20 20 21 23 24 24 23 22 22 23 24 27 29 31 31 31 28 25 24 22 21 23 23 21 20 20 21 22 23 23 23 23 23 23 23 24 24 25 24 24 24 24 22 21 20 19 19 20 19 20 21 21 22 23 22 22 21 22 25 27 24 22
24 22 22 23 23 23 22 21 21 23 27 30 32 34 33 32 30 27 24 23 23 22 20 19 17 18 18 19 20 22 22 23 23 23 23 23 23 24 25 24 23 23 24 21 15 11 7 8 11 13 14 14 14 16 18 19 19 19 19 20 20 17 15
30 29 27 25 22 19 20 23 25 28 31 34 35 35 33 31 29 27 25 23 22 19 16 15 16 17 17 18 19 20 21 22 23 24 24 24 24 23 23 23 22 22 24 25 16 4 5 7 8 9 9 9 10 11 14 16 16 17 17 17 16 13 14
30 30 27 23 20 20 21 24 26 28 31 34 34 32 30 28 28 27 25 22 19 15 13 14 15 16 16 17 18 19 20 21 22 22 23 24 24 23 22 22 22 22 25 27 21 8 3 5 6 7 7 8 9 9 10 13 14 14 15 17 16 13 13
26 26 24 22 22 23 24 24 24 26 30 32 31 30 29 28 26 25 22 19 16 13 12 13 14 15 16 17 18 19 20 21 21 22 22 22 22 23 22 22 24 25 26 26 22 12 5 5 6 7 7 6 7 7 8 10 11 11 13 15 16 16 15
22 22 22 22 23 25 25 25 25 27 30 30 30 30 29 26 23 21 18 15 13 12 13 14 15 15 16 17 18 19 20 21 21 21 22 21 21 22 23 24 26 26 24 24 23 16 8 5 5 6 6 6 6 7 7 8 9 10 11 12 13 15 16
19 18 18 20 23 24 24 24 26 27 28 29 29 30 28 23 19 17 15 13 12 12 13 14 15 16 16 17 18 19 20 21 21 22 22 21 21 22 24 25 26 24 22 23 25 20 11 7 6 6 6 7 8 8 8 8 9 10 10 10 10 13 14
19 17 17 18 21 22 21 22 24 26 27 26 26 26 24 20 16 15 14 13 12 12 13 14 15 16 17 17 18 19 20 21 22 22 21 21 22 23 24 24 24 23 23 23 24 22 17 11 8 8 8 8 8 9 9 10 10 11 11 11 10 12 14
20 19 18 18 19 19 19 20 23 24 25 24 23 23 20 16 14 14 15 14 14 14 14 14 15 16 17 18 19 19 20 20 21 22 22 21 21 22 23 23 23 23 24 24 22 22 22 18 11 8 9 9 9 9 10 11 11 11 12 13 13 13 14
Wind_Direction
304 305 306 306 305 304 302 301 300 299 298 296 294 293 291 290 289 287 286 286 285 283 281 280 278 277 274 274 273 271 269 268 267 266 266 266 267 267 266 265 265 267 273 274 273 275 276 275 276 275 272 272 272 271 270 270 268 266 262 259 258 258 257
304 305 305 305 304 302 301 299 299 298 296 294 292 291 289 287 287 285 283 283 282 280 279 278 277 275 274 272 271 268 267 266 264 263 264 264 263 264 263 262 263 266 272 275 274 275 277 277 274 274 271 270 271 271 270 268 267 265 262 258 257 258 258
303 304 305 304 302 301 299 298 297 296 294 291 290 289 287 284 283 283 281 280 278 277 276 275 274 273 271 271 269 267 265 263 261 260 261 260 258 261 262 260 261 264 268 273 274 274 277 278 274 273 272 271 271 272 272 270 267 265 264 261 259 257 257
303 304 304 302 301 300 298 297 296 294 292 289 288 286 285 283 280 277 276 275 275 275 273 271 271 270 269 268 266 265 263 260 259 258 258 258 257 258 260 261 260 260 263 268 271 270 273 277 277 274 274 274 273 273 272 271 269 266 264 263 262 259 256
303 302 301 300 299 299 298 297 295 293 291 288 286 284 282 280 277 274 273 272 272 273 271 269 269 267 266 265 264 263 261 258 257 256 255 256 257 256 258 261 260 260 262 264 268 269 271 276 278 276 275 273 271 272 273 271 269 267 266 265 263 260 256
300 299 298 297 297 296 295 295 294 292 290 287 285 283 280 277 274 274 273 272 272 271 268 266 266 265 264 262 261 260 259 257 255 255 254 252 253 253 255 259 259 259 261 261 263 267 269 272 275 277 275 270 266 268 269 269 267 266 264 263 261 258 255
297 296 295 294 294 293 293 293 291 288 286 284 282 279 277 276 274 274 273 272 270 269 267 265 265 264 262 259 258 258 259 257 254 254 253 250 250 251 252 253 254 255 256 257 259 261 262 266 270 272 273 272 267 264 263 264 265 263 260 259 258 257 253
295 294 292 292 291 290 290 289 286 284 283 281 280 277 274 274 274 273 273 271 269 269 267 265 263 261 261 261 260 261 261 260 256 254 252 249 248 247 247 247 249 250 251 252 254 255 256 260 264 266 270 273 269 263 259 256 257 260 258 256 255 255 253
294 291 290 289 288 288 287 285 281 280 279 279 280 278 275 274 273 271 272 271 271 271 270 268 265 264 265 266 266 265 264 260 256 253 250 248 246 244 243 244 245 246 248 249 251 252 252 254 257 259 264 268 264 261 263 261 258 258 257 254 254 255 254
291 288 287 287 287 286 283 281 280 280 281 282 282 280 278 278 275 274 273 273 273 273 273 272 269 267 266 265 263 263 262 258 255 252 249 248 247 243 241 242 243 243 243 244 246 249 249 249 251 251 255 262 263 264 268 269 265 262 260 255 254 254 251
287 285 286 286 285 284 282 282 281 283 287 290 290 287 283 279 278 277 276 275 275 274 274 274 272 269 266 262 259 258 258 256 255 253 251 250 249 246 243 241 240 239 240 241 242 244 244 243 247 248 248 254 261 265 268 268 266 266 263 256 251 253 249
286 285 285 285 284 283 284 285 285 287 293 297 297 295 292 286 282 282 280 278 277 277 277 277 275 272 269 265 261 259 258 257 256 255 253 251 250 249 247 245 241 238 235 235 238 239 238 239 242 245 245 247 254 259 263 265 265 265 264 259 253 253 253
287 285 285 286 286 284 284 288 289 291 296 300 300 300 299 294 290 288 285 282 279 277 276 274 272 270 268 266 263 260 259 259 258 257 255 254 252 250 250 249 247 245 240 236 233 233 236 240 242 243 244 244 247 252 255 259 261 263 269 269 261 257 259
286 285 287 291 290 286 286 290 293 293 298 302 304 304 303 299 296 293 288 283 278 275 272 270 268 268 267 267 265 262 261 260 259 258 257 255 252 250 249 249 249 250 248 245 241 235 236 240 243 244 244 245 245 244 246 250 254 259 267 272 272 273 274
284 285 288 292 292 288 288 292 293 295 300 304 306 307 306 303 299 295 289 283 277 274 272 270 268 268 268 268 267 264 263 262 260 259 258 255 252 251 251 249 249 249 249 249 248 244 242 243 243 242 242 242 241 241 241 244 249 255 260 266 271 276 278
282 282 285 288 289 286 288 294 296 299 303 306 307 308 307 304 299 295 289 283 279 277 275 273 271 270 269 269 269 269 268 267 264 261 258 254 251 250 250 251 253 252 249 248 248 246 245 245 243 242 242 241 240 240 240 242 245 247 250 256 263 269 269
282 281 282 284 285 283 286 294 299 302 305 308 310 310 307 302 298 295 291 287 285 283 280 278 275 273 271 271 271 272 273 273 270 265 262 257 252 248 246 248 254 256 252 251 251 248 247 247 246 245 245 243 240 237 233 232 234 235 237 243 249 258 261
284 283 281 280 282 282 284 291 299 303 306 311 315 314 309 303 297 295 294 293 291 288 286 284 281 278 276 274 274 276 277 278 276 272 268 264 257 248 243 245 251 254 253 253 253 252 252 252 251 249 248 246 244 240 233 226 226 229 231 236 240 245 254
284 284 284 282 284 287 287 292 300 305 307 311 317 316 311 305 299 297 297 296 296 294 292 289 287 286 284 282 283 287 289 288 286 283 280 275 265 252 244 246 249 249 248 248 248 250 252 253 253 253 253 252 252 250 245 237 232 230 227 229 237 241 246
285 285 287 288 291 295 295 295 299 303 304 307 314 316 312 307 304 302 300 300 300 297 296 295 294 293 291 291 295 297 295 294 293 292 294 291 279 259 251 254 252 247 246 245 243 245 247 249 251 252 253 255 254 251 249 245 241 236 228 226 232 237 240
287 286 287 290 292 293 294 293 292 295 298 303 310 315 314 311 308 305 303 303 303 301 300 301 299 296 295 298 301 300 298 297 297 298 302 300 286 265 257 258 252 247 247 245 242 243 243 243 246 248 248 250 249 245 243 241 241 240 234 230 231 233 237
287 285 285 289 290 289 291 291 290 291 294 299 306 313 316 315 311 311 312 310 307 305 303 302 300 297 299 301 302 301 300 301 303 306 307 304 289 271 264 264 256 245 242 238 232 232 233 234 236 237 237 240 240 239 237 234 235 236 234 233 234 235 237
285 283 283 287 290 292 294 296 296 296 296 298 303 310 315 315 314 319 322 316 309 306 305 302 300 298 300 302 303 304 305 307 310 309 307 308 306 298 291 285 268 243 228 223 221 221 225 228 229 229 230 231 232 232 231 229 230 231 230 231 234 236 238
283 285 287 290 293 296 298 300 301 301 298 298 301 306 310 312 316 322 323 316 307 305 303 301 300 302 304 306 308 310 311 311 311 310 308 313 318 317 311 300 278 250 229 220 218 218 222 226 224 224 226 228 229 231 231 229 229 228 226 226 228 231 234
285 286 288 291 295 298 300 302 303 302 301 300 302 304 307 310 316 318 316 310 306 304 301 301 303 304 306 308 311 313 314 313 311 312 313 315 318 318 313 305 295 282 257 233 222 218 220 224 223 223 227 229 230 233 234 231 228 225 224 224 225 228 230
285 287 289 292 295 298 302 304 304 303 303 303 304 304 306 310 312 312 310 308 307 306 305 305 305 304 305 309 312 314 314 312 311 313 316 317 320 322 317 309 304 301 292 271 247 228 222 224 224 225 227 230 230 232 234 232 226 222 222 222 221 223 225
286 288 290 292 295 299 301 303 303 302 303 305 306 306 307 309 309 310 312 313 312 312 313 310 306 305 307 310 314 316 316 316 316 318 321 322 323 322 316 311 306 300 292 283 270 252 238 231 226 223 224 225 225 227 229 229 227 224 222 219 218 219 220
285 288 289 291 295 299 301 300 300 300 301 303 304 306 307 307 308 312 315 316 317 320 319 314 311 313 315 318 321 322 322 324 324 326 326 325 324 321 317 315 313 306 296 283 269 260 249 229 216 216 219 219 218 219 222 226 229 232 229 219 213 213 213
283 285 287 290 294 297 299 299 299 299 300 302 305 307 309 309 313 318 321 321 323 325 322 319 320 323 325 327 326 324 326 329 330 330 330 329 327 324 320 319 317 312 310 304 282 252 224 188 190 204 211 210 208 210 216 222 227 233 233 219 204 198 196
287 290 292 294 295 296 297 298 300 302 303 306 309 312 315 317 321 325 327 328 329 329 324 324 326 327 329 330 327 325 327 329 331 331 331 331 330 326 323 321 319 316 319 321 315 270 166 155 174 189 193 199 207 213 219 223 227 233 232 215 195 188 187
293 298 301 301 301 300 300 301 304 306 307 310 313 317 322 325 327 329 331 333 335 332 325 325 326 327 329 329 328 326 327 328 329 329 329 329 329 327 326 324 322 321 320 318 314 299 191 172 184 190 193 204 214 220 227 227 226 232 232 215 197 188 186
300 303 306 306 306 307 308 309 310 311 312 314 318 324 328 328 328 331 333 335 337 333 327 326 326 324 327 329 327 326 326 327 328 328 328 329 328 327 328 326 321 319 316 313 308 298 253 202 201 200 200 209 216 220 227 228 226 232 234 218 197 188 187
302 305 307 309 312 314 315 316 317 319 319 321 325 329 330 329 329 332 334 337 340 336 330 330 327 323 324 326 325 324 324 325 326 327 327 328 327 326 326 324 321 321 320 319 317 308 277 233 221 210 202 208 219 221 223 228 230 235 240 228 204 192 188
304 305 305 308 312 315 317 318 320 322 323 323 325 328 329 329 329 333 338 341 341 334 330 329 326 323 323 323 322 324 324 324 325 325 325 326 327 326 326 325 327 328 328 328 327 321 300 259 236 227 218 215 216 217 221 228 230 232 238 239 220 199 186
304 304 304 306 309 311 313 316 318 320 322 323 325 329 332 332 330 331 337 339 337 332 330 328 324 322 323 323 322 323 323 323 324 324 324 325 326 326 327 329 332 334 333 331 330 328 320 299 255 228 226 227 221 215 216 220 224 226 231 237 233 215 194
300 302 304 305 306 309 312 315 318 319 321 323 329 335 339 336 328 325 326 328 331 330 328 326 324 322 323 323 322 322 322 322 323 324 323 324 325 326 327 329 333 336 335 333 330 331 333 328 305 255 228 224 224 222 220 218 220 222 224 227 232 227 207